• In Uzbekistan
  • List of Countries
  • For 7 days
  • Water Temperature
  • Satellite Maps
  • Weather Map
  • Weather Widgets
  • user-avatar
    Login

    Hourly Weather Kitzbuhel

    Today, 23 July, Tuesday

    Time Temperature Precipitation Wind Pressure Humidity
    00:00 +16°C° 0 mm 1 mps 683 mmHg 93%
    01:00 +16°C° 0 mm 1 mps 683 mmHg 93%
    02:00 +16°C° 0 mm 1 mps 683 mmHg 93%
    03:00 +15°C° 0 mm 1 mps 683 mmHg 93%
    04:00 +15°C° 0 mm 1 mps 683 mmHg 93%
    05:00 +18°C° 0 mm 1 mps 683 mmHg 88%
    06:00 +17°C° 0 mm 0 mps 683 mmHg 82%
    07:00 +19°C° 0 mm 0 mps 684 mmHg 76%
    08:00 +21°C° 0 mm 0 mps 684 mmHg 67%
    09:00 +23°C° 0 mm 0 mps 684 mmHg 57%
    10:00 +27°C° 0 mm 1 mps 685 mmHg 48%
    11:00 +28°C° 0 mm 1 mps 684 mmHg 45%
    12:00 +29°C° 0 mm 1 mps 684 mmHg 43%
    13:00 +30°C° 0 mm 2 mps 684 mmHg 40%
    14:00 +29°C° 0 mm 2 mps 684 mmHg 42%
    15:00 +29°C° 0 mm 2 mps 683 mmHg 45%
    16:00 +29°C° 0 mm 2 mps 683 mmHg 47%
    17:00 +27°C° 0 mm 2 mps 683 mmHg 59%
    18:00 +25°C° 0 mm 1 mps 682 mmHg 70%
    19:00 +24°C° 0 mm 1 mps 682 mmHg 81%
    20:00 +22°C° 0 mm 1 mps 682 mmHg 85%
    21:00 +21°C° 0 mm 1 mps 682 mmHg 88%
    22:00 +19°C° 0 mm 1 mps 682 mmHg 91%
    23:00 +19°C° 0 mm 1 mps 681 mmHg 91%

    Tomorrow, 24 July, Wednesday

    Time Temperature Precipitation Wind Pressure Humidity
    00:00 +19°C° 0 mm 1 mps 681 mmHg 90%
    01:00 +18°C° 0 mm 1 mps 681 mmHg 90%
    02:00 +18°C° 0 mm 1 mps 681 mmHg 89%
    03:00 +18°C° 0 mm 1 mps 680 mmHg 89%
    04:00 +18°C° 0 mm 1 mps 680 mmHg 88%
    05:00 +19°C° 0 mm 1 mps 681 mmHg 83%
    06:00 +19°C° 0 mm 0 mps 681 mmHg 78%
    07:00 +21°C° 0 mm 0 mps 681 mmHg 73%
    08:00 +23°C° 0 mm 0 mps 682 mmHg 65%
    09:00 +27°C° 0 mm 1 mps 682 mmHg 57%
    10:00 +30°C° 0 mm 1 mps 682 mmHg 49%
    11:00 +30°C° 0 mm 1 mps 682 mmHg 44%
    12:00 +31°C° 0 mm 1 mps 682 mmHg 40%
    13:00 +32°C° 0 mm 2 mps 682 mmHg 36%
    14:00 +31°C° 0 mm 2 mps 682 mmHg 39%
    15:00 +31°C° 0 mm 2 mps 682 mmHg 42%
    16:00 +30°C° 0 mm 2 mps 682 mmHg 46%
    17:00 +28°C° 0.3 mm 2 mps 681 mmHg 59%
    18:00 +26°C° 0.3 mm 1 mps 681 mmHg 72%
    19:00 +24°C° 0.3 mm 1 mps 680 mmHg 85%
    20:00 +23°C° 0.2 mm 1 mps 681 mmHg 86%
    21:00 +22°C° 0.2 mm 1 mps 681 mmHg 88%
    22:00 +20°C° 0.2 mm 1 mps 681 mmHg 90%
    23:00 +20°C° 0 mm 1 mps 681 mmHg 89%

    Day after tomorrow, 25 July, Thursday

    Time Temperature Precipitation Wind Pressure Humidity
    00:00 +20°C° 0 mm 1 mps 680 mmHg 89%
    01:00 +19°C° 0 mm 1 mps 680 mmHg 89%
    02:00 +19°C° 0 mm 1 mps 680 mmHg 89%
    03:00 +19°C° 0 mm 1 mps 680 mmHg 89%
    04:00 +19°C° 0 mm 1 mps 680 mmHg 89%
    05:00 +20°C° 0 mm 1 mps 680 mmHg 86%
    06:00 +21°C° 0 mm 1 mps 681 mmHg 83%
    07:00 +21°C° 0 mm 0 mps 681 mmHg 80%
    08:00 +25°C° 0 mm 1 mps 681 mmHg 70%
    09:00 +28°C° 0 mm 1 mps 682 mmHg 60%
    10:00 +30°C° 0 mm 1 mps 682 mmHg 50%
    11:00 +30°C° 0.1 mm 1 mps 682 mmHg 47%
    12:00 +31°C° 0.1 mm 1 mps 682 mmHg 44%
    13:00 +31°C° 0.1 mm 2 mps 682 mmHg 41%
    14:00 +31°C° 0.3 mm 2 mps 681 mmHg 44%
    15:00 +31°C° 0.3 mm 2 mps 681 mmHg 47%
    16:00 +30°C° 0.3 mm 2 mps 681 mmHg 49%
    17:00 +28°C° 0.3 mm 1 mps 680 mmHg 60%
    18:00 +26°C° 0.3 mm 1 mps 680 mmHg 71%
    19:00 +22°C° 0.3 mm 0 mps 680 mmHg 83%
    20:00 +23°C° 0.1 mm 1 mps 679 mmHg 84%
    21:00 +22°C° 0.1 mm 1 mps 679 mmHg 86%
    22:00 +20°C° 0.1 mm 1 mps 679 mmHg 87%
    23:00 +20°C° 0 mm 1 mps 679 mmHg 87%

    26 July, Friday

    Time Temperature Precipitation Wind Pressure Humidity
    00:00 +20°C° 0 mm 1 mps 679 mmHg 87%
    01:00 +19°C° 0 mm 1 mps 678 mmHg 87%
    02:00 +19°C° 0 mm 1 mps 678 mmHg 87%
    03:00 +19°C° 0 mm 1 mps 678 mmHg 87%
    04:00 +19°C° 0 mm 1 mps 678 mmHg 86%
    05:00 +20°C° 0 mm 1 mps 678 mmHg 84%
    06:00 +19°C° 0 mm 0 mps 678 mmHg 81%
    07:00 +21°C° 0 mm 0 mps 678 mmHg 78%
    08:00 +22°C° 0.2 mm 0 mps 678 mmHg 72%
    09:00 +26°C° 0.2 mm 1 mps 678 mmHg 66%
    10:00 +27°C° 0.2 mm 1 mps 678 mmHg 61%
    11:00 +28°C° 0.2 mm 1 mps 678 mmHg 55%
    12:00 +29°C° 0.2 mm 2 mps 678 mmHg 50%
    13:00 +29°C° 0.2 mm 2 mps 678 mmHg 45%
    14:00 +29°C° 0.2 mm 2 mps 677 mmHg 47%
    15:00 +28°C° 0.2 mm 2 mps 677 mmHg 49%
    16:00 +28°C° 0.2 mm 2 mps 677 mmHg 52%
    17:00 +26°C° 0.4 mm 2 mps 676 mmHg 62%
    18:00 +24°C° 0.4 mm 1 mps 676 mmHg 73%
    19:00 +22°C° 0.4 mm 1 mps 675 mmHg 83%
    20:00 +21°C° 0.1 mm 1 mps 675 mmHg 85%
    21:00 +20°C° 0.1 mm 1 mps 675 mmHg 86%
    22:00 +18°C° 0.1 mm 1 mps 675 mmHg 88%
    23:00 +18°C° 0 mm 1 mps 674 mmHg 88%

    27 July, Saturday

    Time Temperature Precipitation Wind Pressure Humidity
    00:00 +16°C° 0 mm 1 mps 674 mmHg 89%
    01:00 +16°C° 0 mm 1 mps 674 mmHg 89%
    02:00 +16°C° 0 mm 1 mps 674 mmHg 89%
    03:00 +15°C° 0 mm 1 mps 673 mmHg 88%
    04:00 +15°C° 0 mm 1 mps 673 mmHg 88%
    05:00 +18°C° 0 mm 1 mps 673 mmHg 84%
    06:00 +17°C° 0 mm 0 mps 674 mmHg 80%
    07:00 +19°C° 0 mm 0 mps 674 mmHg 75%
    08:00 +21°C° 0 mm 0 mps 674 mmHg 67%
    09:00 +25°C° 0 mm 1 mps 675 mmHg 59%
    10:00 +27°C° 0 mm 1 mps 675 mmHg 52%
    11:00 +28°C° 0 mm 1 mps 675 mmHg 50%
    12:00 +28°C° 0 mm 2 mps 675 mmHg 47%
    13:00 +29°C° 0 mm 2 mps 675 mmHg 45%
    14:00 +28°C° 0.4 mm 2 mps 674 mmHg 51%
    15:00 +27°C° 0.4 mm 2 mps 674 mmHg 57%
    16:00 +26°C° 0.4 mm 2 mps 674 mmHg 63%
    17:00 +25°C° 1.2 mm 1 mps 673 mmHg 72%
    18:00 +23°C° 1.2 mm 1 mps 673 mmHg 81%
    19:00 +21°C° 1.2 mm 1 mps 672 mmHg 90%
    20:00 +20°C° 0.5 mm 1 mps 672 mmHg 91%
    21:00 +17°C° 0.5 mm 0 mps 672 mmHg 92%
    22:00 +16°C° 0.5 mm 0 mps 672 mmHg 93%
    23:00 +16°C° 0.1 mm 0 mps 672 mmHg 93%

    28 July, Sunday

    Time Temperature Precipitation Wind Pressure Humidity
    00:00 +16°C° 0.1 mm 1 mps 672 mmHg 92%
    01:00 +16°C° 0.1 mm 1 mps 672 mmHg 92%
    02:00 +15°C° 0.1 mm 1 mps 671 mmHg 92%
    03:00 +15°C° 0.1 mm 1 mps 671 mmHg 92%
    04:00 +15°C° 0.1 mm 1 mps 671 mmHg 93%
    05:00 +15°C° 0 mm 0 mps 671 mmHg 91%
    06:00 +16°C° 0 mm 0 mps 672 mmHg 90%
    07:00 +18°C° 0 mm 0 mps 672 mmHg 88%
    08:00 +21°C° 0.4 mm 1 mps 672 mmHg 83%
    09:00 +22°C° 0.4 mm 1 mps 673 mmHg 78%
    10:00 +23°C° 0.4 mm 2 mps 673 mmHg 73%
    11:00 +24°C° 0.3 mm 2 mps 673 mmHg 69%
    12:00 +24°C° 0.3 mm 2 mps 673 mmHg 65%
    13:00 +25°C° 0.3 mm 2 mps 673 mmHg 61%
    14:00 +24°C° 0.2 mm 2 mps 673 mmHg 64%
    15:00 +24°C° 0.2 mm 2 mps 673 mmHg 67%
    16:00 +22°C° 0.2 mm 3 mps 673 mmHg 69%
    17:00 +21°C° 0.3 mm 2 mps 673 mmHg 78%
    18:00 +21°C° 0.3 mm 1 mps 673 mmHg 86%
    19:00 +19°C° 0.3 mm 1 mps 673 mmHg 94%
    20:00 +18°C° 0.1 mm 1 mps 673 mmHg 94%
    21:00 +16°C° 0.1 mm 1 mps 673 mmHg 95%
    22:00 +15°C° 0.1 mm 1 mps 674 mmHg 95%
    23:00 +15°C° 0 mm 1 mps 674 mmHg 95%
    Show more